GW7188 Weather Reports


Display with metric or nautical units.
time (UTC)temp
F
wind
direction
speed
MPH
gust
MPH
rain 1hr
in
rain 24hr
in
rain mn
in
humidity
%
barometer
mb
20260510220329 68 36 4.0 8.0 0.00 0.00 0.00 36 1021.5
20260510215829 68 29 1.0 4.0 0.00 0.00 0.00 36 1021.4
20260510215329 68 35 4.0 6.0 0.00 0.00 0.00 37 1021.2
20260510214830 68 40 5.0 8.0 0.00 0.00 0.00 34 1021.2
20260510214329 68 34 4.0 6.0 0.00 0.00 0.00 38 1021.2
20260510213830 68 33 3.0 6.0 0.00 0.00 0.00 36 1021.0
20260510213332 68 72 2.0 4.0 0.00 0.00 0.00 38 1021.1
20260510212830 68 38 4.0 5.0 0.00 0.00 0.00 36 1021.2
20260510212330 68 31 2.0 5.0 0.00 0.00 0.00 37 1021.1
20260510211829 68 4 2.0 4.0 0.00 0.00 0.00 36 1021.2
20260510211329 67 24 4.0 6.0 0.00 0.00 0.00 36 1021.2
20260510210829 67 19 3.0 6.0 0.00 0.00 0.00 37 1021.4
20260510210330 67 53 2.0 5.0 0.00 0.00 0.00 37 1021.2
20260510205829 67 31 5.0 7.0 0.00 0.00 0.00 35 1021.2
20260510205330 67 18 4.0 8.0 0.00 0.00 0.00 38 1021.6
20260510204829 66 20 4.0 6.0 0.00 0.00 0.00 37 1021.5
20260510204329 66 35 2.0 3.0 0.00 0.00 0.00 40 1021.5
20260510203830 66 21 4.0 6.0 0.00 0.00 0.00 38 1021.5
20260510203329 66 37 4.0 7.0 0.00 0.00 0.00 39 1021.5
20260510202829 66 10 3.0 4.0 0.00 0.00 0.00 40 1021.6
20260510202329 66 11 2.0 5.0 0.00 0.00 0.00 40 1021.5
20260510201830 66 20 6.0 7.0 0.00 0.00 0.00 37 1021.6
20260510201330 66 30 4.0 7.0 0.00 0.00 0.00 40 1021.6
20260510200829 65 0 1.0 3.0 0.00 0.00 0.00 39 1021.6
20260510200329 65 24 3.0 5.0 0.00 0.00 0.00 40 1021.6
20260510195829 65 314 2.0 4.0 0.00 0.00 0.00 38 1021.6
20260510195329 65 32 2.0 4.0 0.00 0.00 0.00 39 1021.8
20260510194829 65 38 3.0 5.0 0.00 0.00 0.00 38 1021.8
20260510194329 65 15 4.0 6.0 0.00 0.00 0.00 37 1021.9
20260510193831 65 20 5.0 7.0 0.00 0.00 0.00 38 1022.0
20260510193329 65 42 3.0 7.0 0.00 0.00 0.00 38 1022.0
20260510192829 65 22 3.0 6.0 0.00 0.00 0.00 37 1022.0
20260510192330 65 18 3.0 5.0 0.00 0.00 0.00 39 1021.9
20260510191829 65 29 3.0 4.0 0.00 0.00 0.00 38 1021.9
20260510190848 65 40 4.0 7.0 0.00 0.00 0.00 38 1022.0
20260510190330 65 33 4.0 6.0 0.00 0.00 0.00 36 1022.0
20260510185830 65 50 2.0 4.0 0.00 0.00 0.00 37 1022.0
20260510185330 65 349 2.0 4.0 0.00 0.00 0.00 38 1021.9
20260510184829 65 356 2.0 4.0 0.00 0.00 0.00 37 1021.9
20260510184329 65 46 2.0 3.0 0.00 0.00 0.00 38 1021.9
20260510183829 65 36 3.0 4.0 0.00 0.00 0.00 37 1021.8
20260510183330 66 17 2.0 4.0 0.00 0.00 0.00 37 1021.8
20260510182829 65 16 1.0 4.0 0.00 0.00 0.00 37 1021.9
20260510182329 65 45 0.0 2.0 0.00 0.00 0.00 40 1021.9
20260510181830 65 20 4.0 5.0 0.00 0.00 0.00 39 1022.0
20260510181329 65 19 3.0 4.0 0.00 0.00 0.00 38 1022.1
20260510180829 64 40 2.0 4.0 0.00 0.00 0.00 38 1022.1
20260510180333 64 20 3.0 4.0 0.00 0.00 0.00 39 1022.1
20260510175829 64 15 4.0 7.0 0.00 0.00 0.00 37 1022.1
20260510175329 64 27 3.0 5.0 0.00 0.00 0.00 41 1022.2
20260510174829 63 199 0.0 2.0 0.00 0.00 0.00 39 1022.4
20260510174329 63 36 4.0 6.0 0.00 0.00 0.00 39 1022.4
20260510173829 63 49 2.0 4.0 0.00 0.00 0.00 39 1022.3
20260510173329 63 21 4.0 4.0 0.00 0.00 0.00 38 1022.2
20260510172829 64 18 4.0 8.0 0.00 0.00 0.00 39 1022.0
20260510172329 64 14 4.0 7.0 0.00 0.00 0.00 38 1022.0
20260510171830 64 25 3.0 5.0 0.00 0.00 0.00 39 1022.1
20260510171329 64 24 3.0 7.0 0.00 0.00 0.00 39 1022.1
20260510170829 64 33 3.0 6.0 0.00 0.00 0.00 40 1022.1
20260510170329 63 22 4.0 6.0 0.00 0.00 0.00 40 1022.1
20260510165829 63 21 6.0 8.0 0.00 0.00 0.00 40 1022.0
20260510165330 63 40 5.0 6.0 0.00 0.00 0.00 39 1022.0
20260510164829 64 27 3.0 6.0 0.00 0.00 0.00 39 1021.9
20260510164330 64 41 6.0 9.0 0.00 0.00 0.00 39 1021.8
20260510163829 64 21 3.0 5.0 0.00 0.00 0.00 39 1021.9
20260510163329 64 47 2.0 5.0 0.00 0.00 0.00 39 1022.0
20260510162829 64 16 4.0 7.0 0.00 0.00 0.00 40 1021.9
20260510162329 64 23 5.0 9.0 0.00 0.00 0.00 41 1021.9
20260510161830 63 81 2.0 6.0 0.00 0.00 0.00 41 1021.8
20260510161330 62 19 1.0 3.0 0.00 0.00 0.00 41 1021.8
20260510160830 62 22 4.0 6.0 0.00 0.00 0.00 41 1021.7
20260510160329 61 25 2.0 4.0 0.00 0.00 0.00 43 1021.7
20260510155829 61 28 3.0 6.0 0.00 0.00 0.00 41 1021.7
20260510155329 61 24 4.0 7.0 0.00 0.00 0.00 40 1021.8
20260510154830 61 36 5.0 7.0 0.00 0.00 0.00 41 1021.7
20260510154329 61 36 3.0 7.0 0.00 0.00 0.00 41 1021.7
20260510153829 61 21 4.0 8.0 0.00 0.00 0.00 42 1021.6
20260510153329 61 23 3.0 5.0 0.00 0.00 0.00 44 1021.7
20260510152829 60 16 4.0 6.0 0.00 0.00 0.00 43 1021.5
20260510152330 60 43 3.0 5.0 0.00 0.00 0.00 44 1021.6
20260510151829 60 47 2.0 3.0 0.00 0.00 0.00 45 1021.4
20260510151329 60 32 4.0 8.0 0.00 0.00 0.00 43 1021.2
20260510150829 60 38 4.0 7.0 0.00 0.00 0.00 44 1021.1
20260510150330 60 98 4.0 7.0 0.00 0.00 0.00 43 1021.1
20260510145830 60 83 2.0 5.0 0.00 0.00 0.00 45 1021.1
20260510145330 60 34 4.0 6.0 0.00 0.00 0.00 43 1021.2
20260510144830 60 85 4.0 6.0 0.00 0.00 0.00 44 1021.1
20260510144330 59 80 3.0 4.0 0.00 0.00 0.00 47 1021.1
20260510143829 58 56 3.0 5.0 0.00 0.00 0.00 45 1021.1
20260510143330 58 89 2.0 4.0 0.00 0.00 0.00 47 1021.4
20260510142829 58 46 1.0 2.0 0.00 0.00 0.00 47 1021.4
20260510142329 58 41 2.0 4.0 0.00 0.00 0.00 45 1021.4
20260510141829 58 31 2.0 4.0 0.00 0.00 0.00 47 1021.4
20260510141330 58 32 2.0 4.0 0.00 0.00 0.00 45 1021.4
20260510140829 58 31 3.0 7.0 0.00 0.00 0.00 45 1021.4
20260510140330 58 31 4.0 5.0 0.00 0.00 0.00 47 1021.4
20260510135830 57 37 4.0 6.0 0.00 0.00 0.00 45 1021.4
20260510135329 57 38 2.0 3.0 0.00 0.00 0.00 47 1021.2
20260510134829 57 33 3.0 4.0 0.00 0.00 0.00 47 1021.1
20260510134329 57 38 4.0 8.0 0.00 0.00 0.00 46 1021.0
20260510133829 57 23 4.0 7.0 0.00 0.00 0.00 47 1021.0
20260510133330 57 20 4.0 6.0 0.00 0.00 0.00 46 1021.0
20260510132830 57 23 2.0 4.0 0.00 0.00 0.00 48 1020.9
20260510132330 57 33 3.0 5.0 0.00 0.00 0.00 48 1020.8
20260510131829 57 25 4.0 6.0 0.00 0.00 0.00 47 1020.8
20260510131329 57 25 5.0 8.0 0.00 0.00 0.00 48 1020.8
20260510130829 57 18 3.0 6.0 0.00 0.00 0.00 49 1020.7
20260510130329 57 27 2.0 6.0 0.00 0.00 0.00 48 1020.5
20260510125830 56 39 4.0 8.0 0.00 0.00 0.00 48 1020.4
20260510125329 56 25 5.0 9.0 0.00 0.00 0.00 49 1020.3
20260510124829 56 12 4.0 6.0 0.00 0.00 0.00 49 1020.1
20260510124331 56 32 4.0 7.0 0.00 0.00 0.00 50 1019.9
20260510123829 56 44 1.0 3.0 0.00 0.00 0.00 50 1019.8
20260510123330 56 31 4.0 8.0 0.00 0.00 0.00 48 1019.8
20260510122830 56 30 4.0 8.0 0.00 0.00 0.00 48 1019.7
20260510122331 56 30 4.0 6.0 0.00 0.00 0.00 48 1019.6
20260510121830 56 23 5.0 7.0 0.00 0.00 0.00 48 1019.5
20260510121329 56 42 2.0 6.0 0.00 0.00 0.00 48 1019.4
20260510120829 56 43 2.0 4.0 0.00 0.00 0.00 48 1019.2
20260510120329 56 30 2.0 5.0 0.00 0.00 0.00 48 1019.2
20260510115831 56 29 4.0 7.0 0.00 0.00 0.00 48 1019.1
20260510115330 56 27 3.0 4.0 0.00 0.00 0.00 49 1018.9
20260510114829 56 24 4.0 5.0 0.00 0.00 0.00 47 1018.7
20260510114329 57 35 4.0 7.0 0.00 0.00 0.00 47 1018.7
20260510113829 57 27 4.0 7.0 0.00 0.00 0.00 47 1018.7
20260510113329 57 24 2.0 5.0 0.00 0.00 0.00 47 1018.5
20260510112829 57 29 4.0 5.0 0.00 0.00 0.00 47 1018.5
20260510112330 57 28 4.0 6.0 0.00 0.00 0.00 47 1018.2
20260510111829 57 20 5.0 9.0 0.00 0.00 0.00 47 1018.1
20260510111329 57 32 4.0 9.0 0.00 0.00 0.00 47 1018.1
20260510110829 57 25 4.0 7.0 0.00 0.00 0.00 49 1018.2
20260510110329 57 23 4.0 6.0 0.00 0.00 0.00 49 1018.2
20260510105830 57 22 4.0 6.0 0.00 0.00 0.00 49 1017.9
20260510105330 57 39 3.0 7.0 0.00 0.00 0.00 49 1018.1
20260510104829 58 37 1.0 3.0 0.00 0.00 0.00 49 1017.8
20260510104329 58 26 5.0 7.0 0.00 0.00 0.00 48 1017.8
20260510103834 58 23 4.0 7.0 0.00 0.00 0.00 48 1017.7
20260510103329 58 32 5.0 8.0 0.00 0.00 0.00 48 1017.7
20260510102829 58 25 5.0 9.0 0.00 0.00 0.00 48 1017.7
20260510102329 58 35 3.0 5.0 0.00 0.00 0.00 48 1017.6
20260510101829 58 25 2.0 4.0 0.00 0.00 0.00 48 1017.5
20260510101329 58 21 4.0 5.0 0.00 0.00 0.00 48 1017.4
20260510100829 58 26 4.0 6.0 0.00 0.00 0.00 47 1017.3
20260510100329 59 61 3.0 4.0 0.00 0.00 0.00 47 1017.1
20260510095829 59 32 3.0 7.0 0.00 0.00 0.00 48 1017.0
20260510095329 59 50 3.0 6.0 0.00 0.00 0.00 49 1017.0
20260510094830 59 27 2.0 4.0 0.00 0.00 0.00 49 1016.8
20260510094329 60 42 3.0 6.0 0.00 0.00 0.00 49 1016.9
20260510093834 60 39 5.0 7.0 0.00 0.00 0.00 49 1016.8
20260510093329 60 37 4.0 8.0 0.00 0.00 0.00 50 1016.8
20260510092830 60 30 4.0 5.0 0.00 0.00 0.00 52 1017.0
20260510092329 60 22 5.0 6.0 0.00 0.00 0.00 53 1016.9
20260510091832 61 27 4.0 8.0 0.00 0.00 0.00 53 1016.9
20260510091329 61 25 4.0 7.0 0.00 0.00 0.00 53 1016.9
20260510090829 61 30 5.0 7.0 0.00 0.00 0.00 53 1016.7
20260510090330 61 39 5.0 7.0 0.00 0.00 0.00 54 1016.7
20260510085830 61 50 4.0 7.0 0.00 0.00 0.00 54 1016.6
20260510085331 61 36 2.0 3.0 0.00 0.00 0.00 55 1016.5
20260510084829 62 28 4.0 6.0 0.00 0.00 0.00 55 1016.4
20260510084329 62 31 4.0 7.0 0.00 0.00 0.00 56 1016.3
20260510083829 62 37 4.0 7.0 0.00 0.00 0.00 56 1016.3
20260510083329 62 25 3.0 5.0 0.00 0.00 0.00 57 1016.3
20260510082830 62 22 3.0 7.0 0.00 0.00 0.00 57 1016.2
20260510082330 62 24 3.0 5.0 0.00 0.00 0.00 57 1016.0
20260510081829 63 18 3.0 5.0 0.00 0.00 0.00 57 1015.9
20260510081329 63 29 4.0 8.0 0.00 0.00 0.00 57 1015.6
20260510080829 63 28 3.0 5.0 0.00 0.00 0.00 57 1015.7
20260510080329 63 21 4.0 5.0 0.00 0.00 0.00 58 1015.7
20260510075829 63 20 3.0 5.0 0.00 0.00 0.00 58 1015.7
20260510075329 63 20 2.0 5.0 0.00 0.00 0.00 58 1015.7
20260510074830 63 26 3.0 5.0 0.00 0.00 0.00 58 1015.7
20260510074330 63 24 3.0 4.0 0.00 0.00 0.00 58 1015.6
20260510073829 63 19 3.0 5.0 0.00 0.00 0.00 58 1015.7
20260510073330 63 34 1.0 2.0 0.00 0.00 0.00 58 1015.6
20260510072829 64 21 0.0 2.0 0.00 0.00 0.00 58 1015.5
20260510072329 64 35 2.0 3.0 0.00 0.00 0.00 57 1015.4
20260510071829 64 45 1.0 4.0 0.00 0.00 0.00 57 1015.4
20260510071330 64 37 2.0 3.0 0.00 0.00 0.00 57 1015.4
20260510070829 64 28 2.0 4.0 0.00 0.00 0.00 57 1015.4
20260510070330 64 20 1.0 2.0 0.00 0.00 0.00 58 1015.5
20260510065829 64 27 1.0 3.0 0.00 0.00 0.00 58 1015.4
20260510065334 64 17 2.0 4.0 0.00 0.00 0.00 58 1015.3
20260510064829 64 26 0.0 1.0 0.00 0.00 0.00 59 1015.2
20260510064329 64 0 0.0 0.0 0.00 0.00 0.00 59 1015.2
20260510063830 64 26 0.0 2.0 0.00 0.00 0.00 59 1015.1
20260510063330 64 86 0.0 2.0 0.00 0.00 0.00 60 1014.6
20260510062830 65 0 0.0 0.0 0.00 0.00 0.00 58 1014.7
20260510062329 65 28 2.0 3.0 0.00 0.00 0.00 57 1015.0
20260510061829 65 27 1.0 2.0 0.00 0.00 0.00 56 1015.1
20260510061329 65 70 0.0 2.0 0.00 0.00 0.00 58 1014.9
20260510060829 65 49 0.0 1.0 0.00 0.00 0.00 56 1014.9
20260510060330 66 41 1.0 4.0 0.00 0.00 0.00 56 1015.0
20260510055830 66 0 0.0 0.0 0.00 0.00 0.00 56 1015.0
20260510055329 66 41 2.0 3.0 0.00 0.00 0.00 56 1015.0
20260510054829 66 34 1.0 3.0 0.00 0.00 0.00 56 1015.0
20260510054329 66 27 2.0 4.0 0.00 0.00 0.00 56 1015.0
20260510053829 66 27 2.0 4.0 0.00 0.00 0.00 57 1015.0
20260510053329 66 42 0.0 2.0 0.00 0.00 0.00 59 1014.7
20260510052830 66 33 2.0 5.0 0.00 0.00 0.00 59 1014.6
20260510052330 66 36 2.0 4.0 0.00 0.00 0.00 59 1014.6
20260510051829 65 18 1.0 2.0 0.00 0.00 0.00 60 1014.6
20260510051330 65 0 0.0 0.0 0.00 0.00 0.00 63 1014.5
20260510050830 66 0 0.0 0.0 0.00 0.00 0.00 63 1014.5
20260510050331 66 0 0.0 0.0 0.00 0.00 0.00 62 1014.3
20260510045829 66 15 0.0 2.0 0.00 0.00 0.00 62 1014.2
20260510045329 66 240 0.0 1.0 0.00 0.00 0.00 62 1014.1
20260510044829 66 209 0.0 0.0 0.00 0.00 0.00 63 1014.1
20260510044329 66 193 0.0 0.0 0.00 0.00 0.00 62 1013.9
20260510043829 66 0 0.0 0.0 0.00 0.00 0.00 62 1013.7
20260510043329 67 0 0.0 0.0 0.00 0.00 0.00 61 1013.6
20260510042359 68 199 1.0 2.0 0.00 0.00 0.00 58 1013.3
20260510041829 69 0 0.0 0.0 0.00 0.00 0.00 55 1013.0
20260510041329 69 0 0.0 0.0 0.00 0.00 0.00 53 1012.8
20260510040829 69 60 0.0 0.0 0.00 0.00 0.00 53 1012.6
20260510040329 69 27 1.0 3.0 0.00 0.00 0.00 52 1012.6
20260510035830 69 47 0.0 2.0 0.00 0.00 0.00 52 1012.4
20260510035330 69 49 2.0 5.0 0.00 0.00 0.00 52 1012.4
20260510034829 69 40 2.0 4.0 0.00 0.00 0.00 53 1012.4
20260510034329 69 26 2.0 3.0 0.00 0.00 0.00 53 1012.4
20260510033830 69 21 1.0 3.0 0.00 0.00 0.00 53 1012.4
20260510033329 69 20 2.0 4.0 0.00 0.00 0.00 53 1012.3
20260510032829 69 24 3.0 7.0 0.00 0.00 0.00 54 1012.1
20260510032329 69 24 3.0 4.0 0.00 0.00 0.00 54 1012.1
20260510031829 69 0 0.0 0.0 0.00 0.00 0.00 54 1012.2
20260510031330 69 29 2.0 3.0 0.00 0.00 0.00 55 1012.1
20260510030830 69 35 2.0 3.0 0.00 0.00 0.00 55 1012.2
20260510030330 69 35 0.0 1.0 0.00 0.00 0.00 55 1012.2
20260510025829 69 0 0.0 0.0 0.00 0.00 0.00 53 1012.5
20260510025329 69 0 0.0 0.0 0.00 0.00 0.00 53 1012.5
20260510024829 69 0 0.0 0.0 0.00 0.00 0.00 53 1012.5
20260510024329 69 0 0.0 0.0 0.00 0.00 0.00 53 1012.2
20260510023829 69 0 0.0 0.0 0.00 0.00 0.00 53 1012.1
20260510023329 69 0 0.0 0.0 0.00 0.00 0.00 52 1012.0
20260510022829 70 0 0.0 0.0 0.00 0.00 0.00 52 1011.8
20260510022329 70 15 0.0 0.0 0.00 0.00 0.00 51 1011.6
20260510021829 70 25 1.0 2.0 0.00 0.00 0.00 51 1011.2
20260510021329 70 31 1.0 3.0 0.00 0.00 0.00 51 1011.1
20260510020832 71 26 1.0 3.0 0.00 0.00 0.00 51 1011.2
20260510020329 71 37 2.0 3.0 0.00 0.00 0.00 51 1011.2
20260510015830 71 20 2.0 3.0 0.00 0.00 0.00 51 1011.0
20260510015330 71 21 1.0 4.0 0.00 0.00 0.00 51 1010.8
20260510014829 71 24 3.0 4.0 0.00 0.00 0.00 50 1010.8
20260510014330 71 23 2.0 3.0 0.00 0.00 0.00 50 1010.7
20260510013832 72 37 1.0 3.0 0.00 0.00 0.00 49 1010.6
20260510013329 72 28 2.0 3.0 0.00 0.00 0.00 49 1010.6
20260510012830 72 41 0.0 1.0 0.00 0.00 0.00 49 1010.5
20260510012330 73 43 1.0 3.0 0.00 0.00 0.00 48 1010.5
20260510011830 73 31 2.0 4.0 0.00 0.00 0.00 47 1010.3
20260510011330 73 32 3.0 5.0 0.00 0.00 0.00 47 1010.3
20260510010829 73 41 2.0 4.0 0.00 0.00 0.00 47 1010.2
20260510010329 74 23 4.0 6.0 0.00 0.00 0.00 46 1010.2
20260510005829 74 28 2.0 4.0 0.00 0.00 0.00 47 1010.2
20260510005329 74 35 1.0 4.0 0.00 0.00 0.00 46 1010.1
20260510004834 75 20 2.0 4.0 0.00 0.00 0.00 45 1010.0
20260510004329 75 11 2.0 6.0 0.00 0.00 0.00 45 1009.9
20260510003830 76 8 2.0 5.0 0.00 0.00 0.00 44 1009.8
20260510003329 76 25 2.0 3.0 0.00 0.00 0.00 43 1009.7
20260510002829 77 19 2.0 4.0 0.00 0.00 0.00 43 1009.6
20260510002329 77 17 4.0 9.0 0.00 0.00 0.00 42 1009.6
20260510001830 78 15 3.0 8.0 0.00 0.00 0.00 42 1009.5
20260510001329 79 43 0.0 2.0 0.00 0.00 0.00 42 1009.3
20260510000830 79 7 0.0 2.0 0.00 0.00 0.00 41 1009.2
20260510000329 80 268 1.0 4.0 0.00 0.00 0.00 40 1009.3
20260509235829 80 55 1.0 2.0 0.00 0.00 0.00 41 1009.2
20260509235329 81 344 0.0 2.0 0.00 0.00 0.00 43 1009.1
20260509234829 81 0 0.0 0.0 0.00 0.00 0.00 44 1009.0
20260509234330 82 200 0.0 2.0 0.00 0.00 0.00 42 1009.0
20260509233829 83 202 2.0 4.0 0.00 0.00 0.00 41 1008.9
20260509233330 83 0 0.0 0.0 0.00 0.00 0.00 42 1008.9
20260509232829 82 254 1.0 2.0 0.00 0.00 0.00 41 1008.9
20260509232329 82 206 0.0 1.0 0.00 0.00 0.00 42 1009.0
20260509231830 81 270 1.0 3.0 0.00 0.00 0.00 40 1008.9
20260509231331 80 267 2.0 4.0 0.00 0.00 0.00 40 1008.9
20260509230829 80 192 1.0 2.0 0.00 0.00 0.00 43 1008.8
20260509230329 80 204 2.0 3.0 0.00 0.00 0.00 42 1008.8
20260509225829 80 200 1.0 3.0 0.00 0.00 0.00 41 1008.8
20260509225329 80 245 2.0 4.0 0.00 0.00 0.00 41 1008.8
20260509224829 80 207 2.0 4.0 0.00 0.00 0.00 41 1008.8
20260509224330 80 239 1.0 2.0 0.00 0.00 0.00 41 1008.7
20260509223829 80 0 0.0 0.0 0.00 0.00 0.00 42 1008.7
20260509223329 81 0 0.0 0.0 0.00 0.00 0.00 41 1008.6
20260509222829 81 202 2.0 3.0 0.00 0.00 0.00 42 1008.6
20260509222329 82 265 1.0 2.0 0.00 0.00 0.00 41 1008.6
20260509221829 82 231 1.0 3.0 0.00 0.00 0.00 41 1008.6
20260509221329 82 259 2.0 5.0 0.00 0.00 0.00 39 1008.6
20260509220830 83 241 4.0 5.0 0.00 0.00 0.00 38 1008.6